LATINSAT B

Satellite information

Favourite Embed

Satellite Type and Status

PAYLOADIN ORBIT

Key statistics

Satellite LATINSAT B at a glance.

Uptime

8394

Days in orbit

Revolutions

≈ 14.8

Per day

Orbit

LEO

Low Earth Orbit

Inclination

64.6

Latest

Satellite identification and parameters

Extended collection of information and parameters for LATINSAT B.

Object identification

Identified? True

Debris? False

Object name: LATINSAT B

International designator: 2002-058B

Object number (NORAD): 27606

Object ID (CCSDS): 27606

Country: ARGENTINA (ARGN)

Current information (Y/N): Y

RCS size: SMALL

Orbital parameters

Period: 97.52 minutes

Inclination: 64.5544 deg

SMA: 7018.15 km

Apoapsis: 696.519 km

Periapsis: 583.51 km

RAAN: 105.6599 deg

Eccentricy: 0.00805119

Argument of periapsis: 307.0287 deg

Mean anomaly: 52.3469 deg

Mean motion: 14.76620306 rev/day

Mean motion (dot): 0.00001665 rev/day2

B* drag term: 0.00024562773 1/REarth

Two-line elements (TLE)

Creation date: Dec. 11, 2025, 7:14 p.m.

Reference frame: TEME

Reference center: EARTH

Epoch: Dec. 11, 2025, 12:27 p.m. UTC

TLE line 0: 0 LATINSAT B

TLE line 1: 1 27606U 02058B 25345.51916206 .00001665 00000-0 24563-3 0 9996

TLE line 2: 2 27606 64.5544 105.6599 0080512 307.0287 52.3469 14.76620306234383

Live tracking on map

Real-time ground track for satellite LATINSAT B.

In-orbit conjunctions

There are no conjunctions computed for LATINSAT B, at the moment. Check back to stay up to date, as we update our databases every day.

Go to all conjunctions

Associated space launch

Technology satellite for OHB-System, Germany.

LATINSAT B was lifted into orbit during the mission ‘Dnepr | AATiS-OSCAR-49’, on board a Dnepr space rocket.

The launch took place on Dec. 20, 2002, 5 p.m. from 109/95.

For more information about the launch, click the button.

Launch to space Dnepr | AATiS-OSCAR-49
Dnepr | AATiS-OSCAR-49

Agency: N/A

Status: Launch Successful

Launch date: Dec. 20, 2002, 5 p.m. UTC

Rocket: Dnepr

Launch pad: 109/95

Location: Baikonur Cosmodrome, Republic of Kazakhstan

...

Latest news about this satellite

There are no fresh news available about this satellite. Check back as we update our databases every day.


Newsletter sign-up

Weekly statistics, charts and insights to help you stay on top of the space industry.